Regional Weather Roundup
Issued by NWS

Home | Current Version | Previous Version | Graphics & Text | Print | Product List | Glossary On
Versions: 1 2 3 4 5 6 7 8 9 10 11 12 13 14 15 16 17 18 19 20 21 22 23 24 25 26 27 28 29 30 31 32 33 34 35 36 37 38 39 40 41 42 43 44 45 46 47 48 49 50
000
ASUS43 KTOP 271808
RWRKS

WEATHER ROUNDUP FOR KANSAS
NATIONAL WEATHER SERVICE GOODLAND KS
100 PM CDT SAT MAY 27 2017

NOTE:  "FAIR" INDICATES FEW OR NO CLOUDS BELOW 12,000 FEET WITH NO
SIGNIFICANT WEATHER AND/OR OBSTRUCTIONS TO VISIBILITY.

KSZ001>006-013>018-027>032-041>047-271900-
NORTHWEST KANSAS

CITY           SKY/WX    TMP DP  RH WIND       PRES   REMARKS
GOODLAND       PTSUNNY   63  54  72 N21G26    30.02R
6HR MIN TEMP:  52; 6HR MAX TEMP:  63;

HAYS           PTSUNNY   73  60  63 W12       29.90S
HILL CITY      CLOUDY    70  59  68 NW14      29.93R
6HR MIN TEMP:  57; 6HR MAX TEMP:  71;

RUSSELL        CLOUDY    70  60  70 NW7       29.88S
6HR MIN TEMP:  58; 6HR MAX TEMP:  71; 6HR PCP:  0.19;

$$

KSZ061>065-074>080-084>089-271900-
SOUTHWEST KANSAS

CITY           SKY/WX    TMP DP  RH WIND       PRES   REMARKS
DODGE CITY     CLOUDY    73  55  53 N13       29.92R
6HR MIN TEMP:  58; 6HR MAX TEMP:  75;

ELKHART          N/A     68  48  48 N13         N/A
GARDEN CITY    MOSUNNY   74  53  48 N13       29.95R
6HR MIN TEMP:  58; 6HR MAX TEMP:  74;

GREAT BEND     CLOUDY    70  63  78 N12       29.89R
LIBERAL        PTSUNNY   73  58  59 NE13      29.94S
PRATT          MOSUNNY   76  51  41 E14G22    29.86S
6HR MIN TEMP:  60; 6HR MAX TEMP:  76;

$$

KSZ066>073-081>083-090>101-271900-
SOUTHEAST KANSAS

CITY           SKY/WX    TMP DP  RH WIND       PRES   REMARKS
CHANUTE        CLOUDY    76  66  71 N13G22    29.76F
6HR MIN TEMP:  69; 6HR MAX TEMP:  78;

COFFEYVILLE    CLOUDY    80  80 100 S6        29.76F FOG
6HR MIN TEMP:  69; 6HR MAX TEMP:  82; 6HR PCP:  0.02;

HUTCHINSON     PTSUNNY   80  56  43 E15       29.82F
6HR MIN TEMP:  62; 6HR MAX TEMP:  80;

MEDICINE LODGE   N/A     76  57  51 E17G23    29.82R
NEWTON         PTSUNNY   76  55  48 NE13G18   29.83F
PARSONS        LGT RAIN  75  70  84 N8        29.78F
6HR MIN TEMP:  71; 6HR MAX TEMP:  83; 6HR PCP:  0.01;

WICHITA INTL   PTSUNNY   77  60  55 NE22G30   29.80F
6HR MIN TEMP:  68; 6HR MAX TEMP:  78; 6HR PCP: TRACE;

WICHITA JABRA  CLOUDY    77  57  50 NE16G25   29.81F
6HR MIN TEMP:  65; 6HR MAX TEMP:  79;

WICHITA MCCONL CLOUDY    78  59  51 NE16G25   29.80F
WINFIELD       CLOUDY    76  64  66 E15G23    29.81S
6HR MIN TEMP:  68; 6HR MAX TEMP:  80;

$$

KSZ007>012-019>026-033>040-048>060-102>105-271900-
NORTHEAST KANSAS

CITY           SKY/WX    TMP DP  RH WIND       PRES   REMARKS
CONCORDIA      PTSUNNY   69  62  78 N8        29.87R
6HR MIN TEMP:  58; 6HR MAX TEMP:  72; 6HR PCP:  0.19;

EMPORIA        MOSUNNY   78  60  53 NE8       29.80F
6HR MIN TEMP:  65; 6HR MAX TEMP:  78;

LAWRENCE       CLOUDY    67  62  84 SE16G30   29.78F
6HR MIN TEMP:  62; 6HR MAX TEMP:  68; 6HR PCP:  0.11;

MANHATTAN      CLOUDY    71  61  70 VRB3      29.84R
6HR MIN TEMP:  61; 6HR MAX TEMP:  72; 6HR PCP:  0.03;

MARYSVILLE     SUNNY     68  61  77 NE6       29.85S
OLATHE IND     CLOUDY    62  60  93 SE14G23   29.80F
6HR MIN TEMP:  61; 6HR MAX TEMP:  75; 6HR PCP:  0.94;

OLATHE EXE     CLOUDY    61  61 100 E15G32    29.79F
6HR MIN TEMP:  61; 6HR MAX TEMP:  75; 6HR PCP:  0.66;

SALINA         CLOUDY    73  63  70 N5        29.87R
6HR MIN TEMP:  62; 6HR MAX TEMP:  74; 6HR PCP:  0.09;

TOPEKA BILLARD CLOUDY    72  64  76 SW5       29.79R
6HR MIN TEMP:  61; 6HR MAX TEMP:  72; 6HR PCP:  0.48;

TOPEKA FORBES  CLOUDY    73  62  68 S9        29.80F
6HR MIN TEMP:  62; 6HR MAX TEMP:  73; 6HR PCP:  0.17;

$$



USA.gov is the U.S. government's official web portal to all federal, state and local government web resources and services.